Home   Weather   41°29'N, 81°42'W   Past weeks
Flag for USA

Past Weather in 41°29'N, 81°42'W, USA — Yesterday and Last 2 Weeks

Now
64 °F

More clouds than sun.


Feels Like: 64 °F
Forecast: 67 / 51 °F
Wind: 14 mph from Southwest

Location: Cleveland-Hopkins International Airport

Current Time: May 20, 2019 at 8:54:47 am

Latest Report: May 20, 2019 at 8:21 am


Visibility: 10 mi

Pressure: 29.86 "Hg

Humidity: 78%

Dew Point: 57 °F

Location of 41°29'N, 81°42'WLocation

Past Weather in 41°29'N, 81°42'W — Graph

°F

41°29'N, 81°42'W Temperature Yesterday

Maximum temperature yesterday: 85 °F (at 12:51 pm)
Minimum temperature yesterday: 62 °F (at 7:51 pm)
Average temperature yesterday: 74 °F

High & Low Weather Summary for the Past Weeks

 TemperatureHumidityPressure
High85 °F (May 19, 12:51 pm)97% (May 13, 12:01 am)30.27 "Hg (May 13, 12:01 am)
Low41 °F (May 11, 4:51 am)31% (May 15, 5:51 pm)29.70 "Hg (May 13, 4:51 am)
Average58 °F72%29.95 "Hg
* Reported May 5 7:51 am — May 20 7:36 am, 41°29'N, 81°42'W. Weather by CustomWeather, © 2019

Note: Actual official high and low records may vary slightly from our data, if they occured in-between our weather recording intervals... More about our weather records

Advertising

41°29'N, 81°42'W Weather History for the Previous 24 Hours

Scroll right to see more
 ConditionsComfort  
Time TempWeatherWind HumidityBarometerVisibility
7:36 am
Mon, May 20
64 °FCloudy.14 mph84%29.85 "Hg10 mi
6:55 am63 °FBroken clouds.10 mph87%29.85 "Hg10 mi
5:51 am64 °FPartly cloudy.10 mph84%29.82 "Hg10 mi
5:23 am64 °FPassing clouds.12 mph84%29.82 "Hg10 mi
4:51 am65 °FOvercast.10 mph85%29.80 "Hg10 mi
4:26 am65 °FPassing clouds.9 mph87%29.81 "Hg10 mi
4:19 am66 °FPassing clouds.10 mph84%29.81 "Hg10 mi
3:51 am66 °FMostly cloudy.12 mph87%29.79 "Hg10 mi
3:32 am66 °FMostly cloudy.12 mph87%29.81 "Hg10 mi
2:51 am65 °FPartly cloudy.10 mph87%29.77 "Hg10 mi
2:31 am66 °FPartly cloudy.9 mph84%29.79 "Hg10 mi
1:51 am65 °FPartly cloudy.9 mph87%29.76 "Hg10 mi
12:51 am67 °FMostly cloudy.14 mph85%29.76 "Hg10 mi
11:51 pm
Sun, May 19
67 °FLight rain. Mostly cloudy.13 mph79%29.77 "Hg10 mi
10:51 pm65 °FPassing clouds.10 mph85%29.78 "Hg10 mi
9:51 pm65 °FPassing clouds.12 mph85%29.78 "Hg10 mi
8:51 pm64 °FMostly cloudy.8 mph87%29.80 "Hg10 mi
7:51 pm62 °FCloudy.13 mph93%29.81 "Hg10 mi
6:51 pm63 °FLight rain. Cloudy.12 mph84%29.85 "Hg9 mi
6:36 pm63 °FLight rain. Mostly cloudy.14 mph87%29.86 "Hg10 mi
5:51 pm76 °FLight rain. Mostly cloudy.15 mph54%29.79 "Hg10 mi
4:51 pm81 °FMostly cloudy.24 mph37%29.76 "Hg10 mi
3:51 pm83 °FMostly cloudy.21 mph40%29.74 "Hg10 mi
2:51 pm85 °FPartly sunny.21 mph37%29.75 "Hg10 mi
1:51 pm84 °FPartly sunny.20 mph40%29.79 "Hg10 mi
12:51 pm85 °FBroken clouds.18 mph39%29.80 "Hg10 mi
11:51 am84 °FScattered clouds.23 mph45%29.82 "Hg10 mi
10:51 am82 °FPassing clouds.21 mph51%29.84 "Hg10 mi
9:51 am79 °FScattered clouds.12 mph58%29.84 "Hg10 mi
8:51 am77 °FPassing clouds.14 mph60%29.84 "Hg10 mi
Weather by CustomWeather, © 2019

See weather overview